Regional Weather Roundup
Issued by NWS

Home | Current Version | Previous Version | Graphics & Text | Print | Product List | Glossary On
Versions: 1 2 3 4 5 6 7 8 9 10 11 12 13 14 15 16 17 18 19 20 21 22 23 24 25 26 27 28 29 30 31 32 33 34 35 36 37 38 39 40 41 42 43 44 45 46 47 48 49 50
000
ASUS43 KLSX 230707
RWRMO

WEATHER SUMMARY FOR MISSOURI
NATIONAL WEATHER SERVICE SPRINGFIELD MO
100 AM CST MON JAN 23 2017

NOTE: "FAIR" INDICATES FEW OR NO CLOUDS BELOW 12,000 FEET WITH NO
       SIGNIFICANT WEATHER AND/OR OBSTRUCTIONS TO VISIBILITY.
       CURRENT SKY AND/OR WEATHER CONDITIONS ARE NOT AVAILABLE FOR
       CHILLICOTHE AND FARMINGTON.

MOZ001>031-035>038-043-044-053-054-230800-
...NORTHERN AND WESTERN MISSOURI...

CITY           SKY/WX    TMP DP  RH WIND       PRES   REMARKS
KANSAS CTY INT CLEAR     31  28  89 W6        29.90R WCI  25
KANSAS C DTWN  CLEAR     36  32  85 W3        29.91S
LEE`S SUMMIT   CLOUDY    38  34  85 NW10      29.90S
ST JOSEPH      PTCLDY    28  28 100 CALM      29.92R
CHILLICOTHE      N/A     39  35  86 NW5       29.88F
KIRKSVILLE     CLOUDY    38  36  92 NW7       29.84S

$$
MOZ066>068-077>081-088>096-101>105-230800-
...SOUTHWEST MISSOURI...

CITY           SKY/WX    TMP DP  RH WIND       PRES   REMARKS
SPRINGFIELD    CLOUDY    38  35  89 NW13      29.85R WCI  30
JOPLIN         CLOUDY    38  36  92 NW7       29.91S
BRANSON        CLOUDY    36  36 100 NW10G16   29.84S WCI  28

$$
MOZ032>034-039>042-045>050-055>058-069>072-230800-
...CENTRAL MISSOURI...

CITY           SKY/WX    TMP DP  RH WIND       PRES   REMARKS
COLUMBIA       CLOUDY    40  37  89 NW12      29.82R
JEFFERSON CITY CLOUDY    41  37  86 NW8       29.83S
ROLLA          CLOUDY    38  35  89 NW14      29.77F WCI  30
SEDALIA        CLOUDY    39  37  92 NW10      29.87S
WHITEMAN AFB   CLOUDY    38  38 100 NW9       29.86S
WARRENSBURG    CLOUDY    37  34  87 NW9       29.88S
OSAGE BEACH    CLOUDY    39  37  92 NW7       29.85R

$$
MOZ051-052-059>065-230800-
...EAST CENTRAL MISSOURI...

CITY           SKY/WX    TMP DP  RH WIND       PRES   REMARKS
ST LOUIS INTL  MOCLDY    40  34  79 NW13      29.74S
SPIRIT OF STL  CLOUDY    39  35  86 NW7G16    29.75F
ST CHARLES     CLOUDY    39  35  86 NW9       29.75R

$$
MOZ072>076-082>087-097>100-106>115-230800-
...SOUTH CENTRAL AND SOUTHEAST MISSOURI...

CITY           SKY/WX    TMP DP  RH WIND       PRES   REMARKS
CAPE GIRARDEAU PTCLDY    44  36  73 N22G29    29.62R
FARMINGTON     CLOUDY    40  36  86 NW13G23   29.70S
POPLAR BLUFF   PTCLDY    46  37  71 NW13G29   29.63R
WEST PLAINS    CLOUDY    40  36  86 N14G24    29.75S

$$



USA.gov is the U.S. government's official web portal to all federal, state and local government web resources and services.